N47J USSS-UHBB

Flight info

Callsign N47J
Flight time 5h 33m
Altitude 41000
Route DOSUM6J DOSUM T377 SALER N992 GU G229 UDRIL N620 BADOM M160 RUNET RUNET2G
Aircraft CL60/M-SADE3FGHIJ3J4J7P2RWXY/HB1D1

Departure

Time 2026-04-23 14:15
Airport Koltsovo Airport (USSS)

Arrival

Time 2026-04-23 19:48
Airport Ignatyevo Airport (UHBB)
Time Latitude Longitude Altitude Speed Heading
2026-04-23 13:53 56.74940 60.81309 761 ft 0 kts 182°
2026-04-23 14:07 56.74934 60.81309 761 ft 0 kts 182°
2026-04-23 14:08 56.74926 60.81309 761 ft 3 kts 181°
2026-04-23 14:08 56.74920 60.81309 760 ft 0 kts 181°
2026-04-23 14:09 56.74877 60.81354 760 ft 13 kts 116°
2026-04-23 14:09 56.74859 60.81547 763 ft 17 kts 91°
2026-04-23 14:09 56.74859 60.81788 765 ft 19 kts 91°
2026-04-23 14:09 56.74812 60.82035 765 ft 22 kts 118°
2026-04-23 14:10 56.74725 60.82206 763 ft 13 kts 182°
2026-04-23 14:10 56.74631 60.82204 761 ft 14 kts 176°
2026-04-23 14:10 56.74537 60.82207 759 ft 0 kts 181°
2026-04-23 14:13 56.74534 60.82207 759 ft 4 kts 180°
2026-04-23 14:13 56.74467 60.82257 758 ft 13 kts 109°
2026-04-23 14:13 56.74460 60.82432 760 ft 13 kts 91°
2026-04-23 14:14 56.74460 60.82598 761 ft 13 kts 89°
2026-04-23 14:14 56.74474 60.82617 761 ft 5 kts 255°
2026-04-23 14:14 56.74471 60.82311 758 ft 65 kts 272°
2026-04-23 14:14 56.74471 60.81004 749 ft 139 kts 271°
2026-04-23 14:15 56.74468 60.78950 903 ft 177 kts 266°
2026-04-23 14:15 56.74371 60.76717 1566 ft 184 kts 264°
2026-04-23 14:15 56.74328 60.74377 2338 ft 189 kts 266°
2026-04-23 14:15 56.74302 60.71867 2924 ft 210 kts 266°
2026-04-23 14:16 56.74343 60.69164 3625 ft 221 kts 281°
2026-04-23 14:16 56.75111 60.66736 4362 ft 233 kts 317°
2026-04-23 14:16 56.76593 60.65505 5124 ft 244 kts 352°
2026-04-23 14:16 56.78261 60.66011 5902 ft 252 kts 27°
2026-04-23 14:17 56.79534 60.68114 6689 ft 256 kts 60°
2026-04-23 14:17 56.80354 60.70953 7507 ft 259 kts 58°
2026-04-23 14:17 56.81613 60.73242 8330 ft 261 kts 33°
2026-04-23 14:17 56.83187 60.74923 9184 ft 263 kts 27°
2026-04-23 14:18 56.84797 60.76460 10030 ft 266 kts 26°
2026-04-23 14:18 56.86454 60.78035 10696 ft 275 kts 26°
2026-04-23 14:18 56.88157 60.79640 10923 ft 277 kts 26°
2026-04-23 14:18 56.89861 60.81242 10944 ft 276 kts 26°
2026-04-23 14:19 56.91558 60.82840 10947 ft 273 kts 27°
2026-04-23 14:19 56.93158 60.84676 10942 ft 272 kts 40°
2026-04-23 14:19 56.94572 60.86943 10950 ft 271 kts 41°
2026-04-23 14:19 56.95984 60.89233 10949 ft 272 kts 41°
2026-04-23 14:20 56.97383 60.91485 10946 ft 271 kts 41°
2026-04-23 14:20 56.98803 60.93753 10950 ft 271 kts 41°
2026-04-23 14:20 57.00229 60.96016 10949 ft 271 kts 40°
2026-04-23 14:20 57.01658 60.98267 10917 ft 271 kts 40°
2026-04-23 14:21 57.03109 61.00539 10678 ft 273 kts 40°
2026-04-23 14:21 57.04530 61.02747 10610 ft 266 kts 39°
2026-04-23 14:21 57.05944 61.04905 10590 ft 268 kts 39°
2026-04-23 14:21 57.07375 61.07084 10592 ft 269 kts 39°
2026-04-23 14:22 57.08798 61.09251 10830 ft 269 kts 39°
2026-04-23 14:22 57.10294 61.11529 11238 ft 292 kts 39°
2026-04-23 14:22 57.11937 61.14031 11628 ft 316 kts 40°
2026-04-23 14:22 57.13674 61.16677 12016 ft 338 kts 40°
2026-04-23 14:23 57.15548 61.19533 12385 ft 359 kts 40°
2026-04-23 14:23 57.17489 61.22492 12755 ft 373 kts 40°
2026-04-23 14:23 57.19503 61.25566 13126 ft 379 kts 40°
2026-04-23 14:23 57.21544 61.28684 13505 ft 381 kts 40°
2026-04-23 14:24 57.23581 61.31800 13885 ft 382 kts 40°
2026-04-23 14:24 57.25609 61.34906 14268 ft 385 kts 40°
2026-04-23 14:24 57.27662 61.38134 14632 ft 387 kts 45°
2026-04-23 14:24 57.29284 61.41992 15040 ft 386 kts 63°
2026-04-23 14:25 57.30386 61.46536 15385 ft 388 kts 69°
2026-04-23 14:25 57.31411 61.51125 15773 ft 390 kts 69°
2026-04-23 14:25 57.32453 61.55765 16163 ft 392 kts 69°
2026-04-23 14:25 57.33497 61.60428 16622 ft 393 kts 69°
2026-04-23 14:26 57.34530 61.65051 17117 ft 396 kts 70°
2026-04-23 14:26 57.35591 61.69813 17636 ft 400 kts 70°
2026-04-23 14:26 57.36639 61.74530 18136 ft 405 kts 70°
2026-04-23 14:26 57.37712 61.79368 18647 ft 408 kts 70°
2026-04-23 14:27 57.38794 61.84259 19162 ft 412 kts 70°
2026-04-23 14:27 57.39875 61.89156 19665 ft 415 kts 70°
2026-04-23 14:27 57.40969 61.94127 20184 ft 419 kts 70°
2026-04-23 14:27 57.42057 61.99081 20678 ft 423 kts 70°
2026-04-23 14:28 57.43163 62.04129 21190 ft 427 kts 70°
2026-04-23 14:28 57.44277 62.09226 21698 ft 431 kts 70°
2026-04-23 14:28 57.45409 62.14415 22202 ft 434 kts 70°
2026-04-23 14:28 57.46528 62.19591 22713 ft 437 kts 71°
2026-04-23 14:29 57.47598 62.24936 23218 ft 439 kts 72°
2026-04-23 14:29 57.48629 62.30202 23719 ft 442 kts 72°
2026-04-23 14:29 57.49685 62.35599 24232 ft 444 kts 72°
2026-04-23 14:29 57.50727 62.40946 24726 ft 445 kts 72°
2026-04-23 14:30 57.51776 62.46338 25208 ft 446 kts 72°
2026-04-23 14:30 57.52830 62.51774 25715 ft 446 kts 72°
2026-04-23 14:30 57.53873 62.57171 26206 ft 446 kts 72°
2026-04-23 14:30 57.54913 62.62567 26704 ft 446 kts 72°
2026-04-23 14:31 57.55952 62.67970 27127 ft 447 kts 72°
2026-04-23 14:31 57.56993 62.73406 27380 ft 452 kts 72°
2026-04-23 14:31 57.58048 62.78930 27635 ft 457 kts 72°
2026-04-23 14:31 57.59113 62.84523 27887 ft 462 kts 72°
2026-04-23 14:32 57.60189 62.90190 28142 ft 466 kts 72°
2026-04-23 14:32 57.61269 62.95893 28396 ft 471 kts 72°
2026-04-23 14:32 57.62355 63.01645 28638 ft 475 kts 72°
2026-04-23 14:32 57.63454 63.07480 28898 ft 478 kts 72°
2026-04-23 14:33 57.64543 63.13285 29153 ft 481 kts 72°
2026-04-23 14:33 57.65642 63.19161 29396 ft 483 kts 72°
2026-04-23 14:33 57.66746 63.25078 29652 ft 485 kts 72°
2026-04-23 14:33 57.67856 63.31046 29904 ft 487 kts 72°
2026-04-23 14:34 57.68955 63.36974 30156 ft 488 kts 72°
2026-04-23 14:34 57.70063 63.42973 30410 ft 488 kts 72°
2026-04-23 14:34 57.71158 63.48917 30657 ft 489 kts 72°
2026-04-23 14:34 57.72266 63.54952 30913 ft 489 kts 72°
2026-04-23 14:35 57.73359 63.60926 31135 ft 489 kts 72°
2026-04-23 14:35 57.74443 63.66867 31375 ft 487 kts 73°
2026-04-23 14:35 57.75537 63.72885 31630 ft 485 kts 73°
2026-04-23 14:35 57.76602 63.78757 31882 ft 482 kts 72°
2026-04-23 14:36 57.77674 63.84690 32138 ft 479 kts 73°
2026-04-23 14:36 57.78728 63.90546 32390 ft 476 kts 72°
2026-04-23 14:36 57.79773 63.96365 32647 ft 473 kts 72°
2026-04-23 14:36 57.80814 64.02182 32903 ft 469 kts 72°
2026-04-23 14:37 57.81846 64.07968 33180 ft 466 kts 72°
2026-04-23 14:37 57.82821 64.13710 33437 ft 463 kts 76°
2026-04-23 14:37 57.83460 64.19567 33697 ft 458 kts 82°
2026-04-23 14:37 57.83996 64.25481 33981 ft 456 kts 82°
2026-04-23 14:38 57.84525 64.31293 34223 ft 454 kts 81°
2026-04-23 14:38 57.85054 64.37113 34480 ft 453 kts 81°
2026-04-23 14:38 57.85575 64.42876 34729 ft 450 kts 81°
2026-04-23 14:38 57.86098 64.48700 34989 ft 448 kts 81°
2026-04-23 14:39 57.86613 64.54441 35226 ft 446 kts 81°
2026-04-23 14:39 57.87123 64.60175 35375 ft 447 kts 81°
2026-04-23 14:39 57.87631 64.65903 35513 ft 448 kts 82°
2026-04-23 14:39 57.88138 64.71652 35638 ft 449 kts 82°
2026-04-23 14:40 57.88649 64.77469 35771 ft 449 kts 82°
2026-04-23 14:40 57.89149 64.83205 35897 ft 450 kts 82°
2026-04-23 14:40 57.89656 64.89040 36027 ft 450 kts 82°
2026-04-23 14:40 57.90154 64.94797 36157 ft 450 kts 82°
2026-04-23 14:41 57.90654 65.00612 36285 ft 450 kts 82°
2026-04-23 14:41 57.91144 65.06345 36414 ft 450 kts 82°
2026-04-23 14:41 57.91638 65.12160 36541 ft 450 kts 82°
2026-04-23 14:41 57.92125 65.17911 36676 ft 449 kts 82°
2026-04-23 14:42 57.92614 65.23734 36804 ft 449 kts 82°
2026-04-23 14:42 57.93094 65.29472 36937 ft 448 kts 82°
2026-04-23 14:42 57.93574 65.35245 37066 ft 448 kts 82°
2026-04-23 14:42 57.94050 65.40997 37192 ft 447 kts 82°
2026-04-23 14:43 57.94528 65.46812 37322 ft 446 kts 82°
2026-04-23 14:43 57.94992 65.52489 37445 ft 445 kts 82°
2026-04-23 14:43 57.95457 65.58206 37573 ft 444 kts 82°
2026-04-23 14:43 57.95924 65.63978 37697 ft 443 kts 82°
2026-04-23 14:44 57.96382 65.69686 37830 ft 441 kts 83°
2026-04-23 14:44 57.96836 65.75362 37972 ft 440 kts 83°
2026-04-23 14:44 57.97284 65.81000 38095 ft 439 kts 83°
2026-04-23 14:44 57.97734 65.86702 38223 ft 438 kts 83°
2026-04-23 14:45 57.98174 65.92301 38352 ft 437 kts 83°
2026-04-23 14:45 57.98605 65.97914 38477 ft 435 kts 84°
2026-04-23 14:45 57.99034 66.03566 38602 ft 434 kts 83°
2026-04-23 14:45 57.99453 66.09116 38729 ft 432 kts 83°
2026-04-23 14:46 57.99871 66.14696 38855 ft 431 kts 83°
2026-04-23 14:46 58.00286 66.20263 38980 ft 429 kts 83°
2026-04-23 14:46 58.00697 66.25802 39105 ft 427 kts 84°
2026-04-23 14:46 58.01102 66.31293 39234 ft 425 kts 84°
2026-04-23 14:47 58.01502 66.36756 39358 ft 422 kts 84°
2026-04-23 14:47 58.01899 66.42213 39481 ft 420 kts 84°
2026-04-23 14:47 58.02289 66.47601 39605 ft 417 kts 84°
2026-04-23 14:47 58.02673 66.52949 39730 ft 415 kts 84°
2026-04-23 14:48 58.03059 66.58346 39856 ft 412 kts 84°
2026-04-23 14:48 58.03434 66.63614 39982 ft 409 kts 84°
2026-04-23 14:48 58.03805 66.68869 40108 ft 405 kts 84°
2026-04-23 14:48 58.04172 66.74093 40238 ft 401 kts 84°
2026-04-23 14:49 58.04535 66.79305 40354 ft 398 kts 85°
2026-04-23 14:49 58.04892 66.84441 40478 ft 394 kts 84°
2026-04-23 14:49 58.05247 66.89533 40595 ft 390 kts 84°
2026-04-23 14:49 58.05601 66.94543 40709 ft 386 kts 84°
2026-04-23 14:50 58.06299 67.04521 40731 ft 384 kts 84°
2026-04-23 14:50 58.06979 67.14363 40741 ft 382 kts 84°
2026-04-23 14:51 58.07659 67.24319 40738 ft 381 kts 84°
2026-04-23 14:51 58.08328 67.34206 40677 ft 382 kts 84°
2026-04-23 14:52 58.08660 67.39183 40559 ft 385 kts 84°
2026-04-23 14:52 58.08992 67.44184 40476 ft 387 kts 84°
2026-04-23 14:52 58.09661 67.54339 40170 ft 397 kts 84°
2026-04-23 14:53 58.10001 67.59552 40011 ft 403 kts 84°
2026-04-23 14:53 58.10342 67.64819 39899 ft 407 kts 84°
2026-04-23 14:53 58.11023 67.75462 39766 ft 412 kts 85°
2026-04-23 14:54 58.11363 67.80821 39612 ft 418 kts 85°
2026-04-23 14:54 58.11711 67.86356 39326 ft 427 kts 85°
2026-04-23 14:54 58.12060 67.91945 39117 ft 434 kts 85°
2026-04-23 14:54 58.12409 67.97581 38964 ft 440 kts 85°
2026-04-23 14:55 58.12765 68.03355 38860 ft 444 kts 85°
2026-04-23 14:55 58.13122 68.09184 38792 ft 448 kts 85°
2026-04-23 14:55 58.13828 68.20861 38744 ft 452 kts 85°
2026-04-23 14:56 58.14646 68.32629 38741 ft 456 kts 82°
2026-04-23 14:56 58.15666 68.44483 38742 ft 459 kts 82°
2026-04-23 14:57 58.16679 68.56449 38746 ft 462 kts 82°
2026-04-23 14:57 58.17685 68.68478 38745 ft 465 kts 83°
2026-04-23 14:58 58.18687 68.80617 38744 ft 468 kts 83°
2026-04-23 14:58 58.19680 68.92781 38751 ft 471 kts 83°
2026-04-23 14:59 58.20664 69.05009 38766 ft 473 kts 83°
2026-04-23 14:59 58.21645 69.17368 38767 ft 475 kts 83°
2026-04-23 15:00 58.22616 69.29761 38761 ft 477 kts 83°
2026-04-23 15:00 58.23579 69.42226 38762 ft 480 kts 83°
2026-04-23 15:01 58.24533 69.54736 38762 ft 482 kts 83°
2026-04-23 15:01 58.25478 69.67286 38767 ft 484 kts 84°
2026-04-23 15:02 58.26412 69.79873 38764 ft 485 kts 84°
2026-04-23 15:02 58.27341 69.92558 38764 ft 487 kts 84°
2026-04-23 15:03 58.28259 70.05288 38776 ft 488 kts 84°
2026-04-23 15:03 58.29165 70.18012 38780 ft 490 kts 84°
2026-04-23 15:04 58.30061 70.30800 38782 ft 492 kts 84°
2026-04-23 15:04 58.30952 70.43703 38772 ft 493 kts 84°
2026-04-23 15:05 58.31831 70.56613 38780 ft 494 kts 83°
2026-04-23 15:05 58.32695 70.69520 38781 ft 495 kts 84°
2026-04-23 15:06 58.33549 70.82455 38781 ft 496 kts 84°
2026-04-23 15:06 58.34394 70.95478 38786 ft 497 kts 84°
2026-04-23 15:07 58.35223 71.08458 38770 ft 497 kts 84°
2026-04-23 15:07 58.36046 71.21544 38778 ft 497 kts 84°
2026-04-23 15:08 58.36850 71.34568 38782 ft 497 kts 84°
2026-04-23 15:09 58.38032 71.54114 38785 ft 498 kts 84°
2026-04-23 15:09 58.38802 71.67120 38783 ft 498 kts 85°
2026-04-23 15:10 58.39438 71.78046 38783 ft 498 kts 85°
2026-04-23 15:10 58.40309 71.93275 38777 ft 498 kts 85°
2026-04-23 15:11 58.41042 72.06361 38772 ft 498 kts 85°
2026-04-23 15:11 58.41763 72.19455 38774 ft 498 kts 85°
2026-04-23 15:12 58.42469 72.32547 38772 ft 499 kts 85°
2026-04-23 15:12 58.43164 72.45679 38771 ft 499 kts 85°
2026-04-23 15:13 58.43848 72.58852 38774 ft 499 kts 85°
2026-04-23 15:13 58.44517 72.72005 38782 ft 499 kts 86°
2026-04-23 15:14 58.45173 72.85180 38785 ft 500 kts 86°
2026-04-23 15:14 58.45813 72.98296 38788 ft 500 kts 86°
2026-04-23 15:15 58.46441 73.11456 38782 ft 500 kts 86°
2026-04-23 15:15 58.47076 73.24673 38785 ft 501 kts 86°
2026-04-23 15:16 58.47722 73.37878 38781 ft 501 kts 86°
2026-04-23 15:16 58.48356 73.51150 38781 ft 501 kts 86°
2026-04-23 15:17 58.48973 73.64375 38784 ft 502 kts 86°
2026-04-23 15:17 58.49577 73.77595 38776 ft 502 kts 87°
2026-04-23 15:18 58.50168 73.90839 38776 ft 502 kts 87°
2026-04-23 15:18 58.50745 74.04098 38774 ft 502 kts 87°
2026-04-23 15:19 58.51307 74.17309 38768 ft 502 kts 87°
2026-04-23 15:19 58.51856 74.30547 38781 ft 503 kts 87°
2026-04-23 15:20 58.52306 74.41631 38796 ft 502 kts 87°
2026-04-23 15:20 58.52918 74.57159 38797 ft 503 kts 87°
2026-04-23 15:21 58.53426 74.70391 38790 ft 503 kts 88°
2026-04-23 15:21 58.53922 74.83694 38778 ft 503 kts 88°
2026-04-23 15:22 58.54406 74.97032 38775 ft 503 kts 88°
2026-04-23 15:22 58.54874 75.10352 38774 ft 504 kts 88°
2026-04-23 15:23 58.55327 75.23595 38776 ft 504 kts 88°
2026-04-23 15:23 58.55770 75.36962 38773 ft 504 kts 88°
2026-04-23 15:24 58.56198 75.50340 38766 ft 505 kts 88°
2026-04-23 15:24 58.56613 75.63697 38777 ft 506 kts 88°
2026-04-23 15:25 58.57015 75.77112 38775 ft 506 kts 89°
2026-04-23 15:25 58.57339 75.88284 38764 ft 506 kts 89°
2026-04-23 15:26 58.57777 76.03909 39153 ft 495 kts 89°
2026-04-23 15:26 58.57951 76.10223 40099 ft 472 kts 88°
2026-04-23 15:26 58.58117 76.16430 40510 ft 462 kts 88°
2026-04-23 15:27 58.58432 76.28602 40682 ft 459 kts 88°
2026-04-23 15:27 58.58733 76.40721 40747 ft 457 kts 89°
2026-04-23 15:28 58.59055 76.52889 40750 ft 458 kts 86°
2026-04-23 15:28 58.59557 76.64991 40754 ft 459 kts 86°
2026-04-23 15:29 58.60051 76.77113 40746 ft 459 kts 87°
2026-04-23 15:29 58.60536 76.89291 40747 ft 459 kts 87°
2026-04-23 15:30 58.61006 77.01417 40746 ft 460 kts 87°
2026-04-23 15:30 58.61467 77.13602 40759 ft 460 kts 87°
2026-04-23 15:31 58.61917 77.25833 40743 ft 461 kts 87°
2026-04-23 15:31 58.62355 77.38056 40750 ft 462 kts 87°
2026-04-23 15:32 58.62784 77.50353 40750 ft 462 kts 87°
2026-04-23 15:32 58.63202 77.62658 40754 ft 463 kts 87°
2026-04-23 15:33 58.63609 77.75002 40755 ft 463 kts 88°
2026-04-23 15:33 58.64001 77.87278 40755 ft 464 kts 88°
2026-04-23 15:34 58.64384 77.99609 40740 ft 465 kts 88°
2026-04-23 15:34 58.64755 78.11964 40726 ft 466 kts 88°
2026-04-23 15:35 58.65114 78.24316 40739 ft 466 kts 88°
2026-04-23 15:35 58.65463 78.36700 40723 ft 467 kts 88°
2026-04-23 15:36 58.65799 78.49089 40730 ft 468 kts 88°
2026-04-23 15:36 58.66124 78.61530 40733 ft 468 kts 88°
2026-04-23 15:37 58.66441 78.74084 40733 ft 469 kts 89°
2026-04-23 15:37 58.66693 78.84467 40740 ft 469 kts 89°
2026-04-23 15:38 58.67031 78.98955 40737 ft 470 kts 89°
2026-04-23 15:38 58.67310 79.11468 40740 ft 469 kts 89°
2026-04-23 15:39 58.67575 79.23929 40733 ft 469 kts 89°
2026-04-23 15:39 58.67831 79.36488 40733 ft 469 kts 89°
2026-04-23 15:40 58.68073 79.48972 40735 ft 468 kts 89°
2026-04-23 15:40 58.68302 79.61444 40736 ft 468 kts 89°
2026-04-23 15:41 58.68538 79.73886 40727 ft 468 kts 89°
2026-04-23 15:41 58.68795 79.86317 40727 ft 468 kts 90°
2026-04-23 15:42 58.69040 79.98769 40725 ft 467 kts 90°
2026-04-23 15:42 58.69273 80.11270 40724 ft 467 kts 90°
2026-04-23 15:43 58.69494 80.23724 40718 ft 468 kts 89°
2026-04-23 15:43 58.69702 80.36196 40713 ft 468 kts 90°
2026-04-23 15:44 58.69898 80.48676 40720 ft 468 kts 90°
2026-04-23 15:44 58.70083 80.61179 40718 ft 469 kts 89°
2026-04-23 15:45 58.70255 80.73692 40714 ft 469 kts 90°
2026-04-23 15:45 58.70415 80.86157 40704 ft 469 kts 91°
2026-04-23 15:46 58.70565 80.98762 40702 ft 470 kts 91°
2026-04-23 15:46 58.70699 81.11173 40704 ft 470 kts 90°
2026-04-23 15:47 58.70821 81.23714 40713 ft 470 kts 90°
2026-04-23 15:47 58.70928 81.36294 40717 ft 471 kts 91°
2026-04-23 15:48 58.71023 81.48840 40706 ft 472 kts 91°
2026-04-23 15:48 58.71106 81.61437 40717 ft 472 kts 90°
2026-04-23 15:49 58.71176 81.73998 40715 ft 472 kts 91°
2026-04-23 15:49 58.71234 81.86582 40700 ft 473 kts 91°
2026-04-23 15:50 58.71281 81.99255 40691 ft 474 kts 91°
2026-04-23 15:50 58.71314 82.11828 40690 ft 474 kts 91°
2026-04-23 15:51 58.71336 82.24472 40685 ft 475 kts 91°
2026-04-23 15:51 58.71344 82.37207 40685 ft 476 kts 91°
2026-04-23 15:52 58.71341 82.49921 40684 ft 477 kts 91°
2026-04-23 15:52 58.71325 82.62656 40681 ft 477 kts 91°
2026-04-23 15:53 58.71297 82.75379 40676 ft 478 kts 92°
2026-04-23 15:53 58.71256 82.88077 40673 ft 479 kts 92°
2026-04-23 15:54 58.71202 83.00807 40655 ft 480 kts 92°
2026-04-23 15:54 58.71135 83.13612 40646 ft 481 kts 92°
2026-04-23 15:55 58.71056 83.26369 40658 ft 481 kts 92°
2026-04-23 15:55 58.70963 83.39236 40661 ft 482 kts 91°
2026-04-23 15:56 58.70858 83.52090 40660 ft 482 kts 92°
2026-04-23 15:56 58.70740 83.64929 40652 ft 484 kts 91°
2026-04-23 15:57 58.70608 83.77853 40663 ft 484 kts 92°
2026-04-23 15:57 58.70464 83.90739 40665 ft 484 kts 92°
2026-04-23 15:58 58.70306 84.03653 40661 ft 485 kts 92°
2026-04-23 15:58 58.70136 84.16574 40651 ft 486 kts 92°
2026-04-23 15:59 58.69951 84.29572 40658 ft 486 kts 92°
2026-04-23 15:59 58.69755 84.42495 40657 ft 486 kts 92°
2026-04-23 16:00 58.69546 84.55392 40650 ft 487 kts 92°
2026-04-23 16:00 58.69323 84.68365 40640 ft 488 kts 92°
2026-04-23 16:01 58.69085 84.81405 40649 ft 488 kts 93°
2026-04-23 16:01 58.68837 84.94309 40649 ft 488 kts 92°
2026-04-23 16:02 58.68574 85.07345 40654 ft 488 kts 92°
2026-04-23 16:02 58.68301 85.20158 40660 ft 488 kts 92°
2026-04-23 16:03 58.68013 85.33116 40660 ft 488 kts 93°
2026-04-23 16:03 58.67711 85.46119 40662 ft 489 kts 92°
2026-04-23 16:04 58.67396 85.59126 40657 ft 489 kts 93°
2026-04-23 16:04 58.67067 85.72144 40657 ft 489 kts 94°
2026-04-23 16:05 58.66783 85.82970 40663 ft 489 kts 94°
2026-04-23 16:05 58.66373 85.98055 40661 ft 489 kts 93°
2026-04-23 16:06 58.66005 86.11080 40659 ft 489 kts 93°
2026-04-23 16:06 58.65624 86.24093 40669 ft 490 kts 93°
2026-04-23 16:07 58.65229 86.37088 40663 ft 490 kts 93°
2026-04-23 16:07 58.64822 86.50089 40667 ft 490 kts 93°
2026-04-23 16:08 58.64404 86.63014 40669 ft 491 kts 93°
2026-04-23 16:08 58.64014 86.76070 40676 ft 490 kts 92°
2026-04-23 16:09 58.63804 86.89057 40677 ft 490 kts 91°
2026-04-23 16:09 58.63580 87.02095 40677 ft 490 kts 92°
2026-04-23 16:10 58.63341 87.15121 40678 ft 491 kts 92°
2026-04-23 16:10 58.63089 87.28168 40687 ft 490 kts 91°
2026-04-23 16:11 58.62825 87.41182 40681 ft 491 kts 91°
2026-04-23 16:11 58.62547 87.54162 40679 ft 491 kts 91°
2026-04-23 16:12 58.62255 87.67205 40687 ft 491 kts 92°
2026-04-23 16:12 58.61950 87.80207 40688 ft 490 kts 92°
2026-04-23 16:13 58.61631 87.93251 40691 ft 490 kts 92°
2026-04-23 16:13 58.61222 88.12743 40687 ft 490 kts 91°
2026-04-23 16:14 58.60945 88.25785 40701 ft 489 kts 91°
2026-04-23 16:14 58.60657 88.38734 40698 ft 489 kts 91°
2026-04-23 16:15 58.60354 88.51720 40709 ft 489 kts 91°
2026-04-23 16:15 58.60039 88.64665 40721 ft 489 kts 91°
2026-04-23 16:16 58.59710 88.77657 40726 ft 489 kts 91°
2026-04-23 16:16 58.59369 88.90595 40731 ft 489 kts 91°
2026-04-23 16:17 58.59017 89.03478 40738 ft 488 kts 92°
2026-04-23 16:17 58.58648 89.16449 40741 ft 488 kts 91°
2026-04-23 16:18 58.58267 89.29422 40751 ft 489 kts 91°
2026-04-23 16:18 58.57873 89.42376 40745 ft 489 kts 92°
2026-04-23 16:19 58.57466 89.55336 40743 ft 489 kts 91°
2026-04-23 16:19 58.57047 89.68243 40761 ft 489 kts 92°
2026-04-23 16:20 58.56612 89.81261 40763 ft 489 kts 92°
2026-04-23 16:20 58.56166 89.94173 40770 ft 489 kts 92°
2026-04-23 16:21 58.55709 90.07064 40766 ft 489 kts 92°
2026-04-23 16:21 58.55236 90.20036 40771 ft 489 kts 92°
2026-04-23 16:22 58.54753 90.32912 40798 ft 488 kts 92°
2026-04-23 16:22 58.54254 90.45858 40799 ft 489 kts 91°
2026-04-23 16:23 58.53744 90.58763 40817 ft 488 kts 92°
2026-04-23 16:23 58.53219 90.71719 40821 ft 489 kts 92°
2026-04-23 16:24 58.52685 90.84573 40818 ft 489 kts 92°
2026-04-23 16:24 58.52140 90.97517 40811 ft 489 kts 92°
2026-04-23 16:25 58.51586 91.10389 40826 ft 488 kts 92°
2026-04-23 16:25 58.51020 91.23251 40834 ft 488 kts 92°
2026-04-23 16:26 58.50441 91.36109 40845 ft 488 kts 92°
2026-04-23 16:26 58.49846 91.49020 40845 ft 488 kts 92°
2026-04-23 16:27 58.49241 91.61889 40842 ft 488 kts 92°
2026-04-23 16:27 58.48619 91.74819 40867 ft 488 kts 93°
2026-04-23 16:28 58.47990 91.87636 40848 ft 488 kts 93°
2026-04-23 16:28 58.47348 92.00442 40862 ft 488 kts 93°
2026-04-23 16:29 58.46755 92.13309 40875 ft 486 kts 88°
2026-04-23 16:29 58.46797 92.26189 40897 ft 484 kts 86°
2026-04-23 16:30 58.46852 92.38934 40905 ft 484 kts 86°
2026-04-23 16:30 58.46892 92.51781 40910 ft 485 kts 86°
2026-04-23 16:31 58.46919 92.64640 40919 ft 485 kts 85°
2026-04-23 16:31 58.46932 92.77441 40910 ft 485 kts 86°
2026-04-23 16:32 58.46930 92.90331 40907 ft 486 kts 86°
2026-04-23 16:32 58.46916 93.03224 40902 ft 486 kts 86°
2026-04-23 16:33 58.46888 93.16090 40910 ft 485 kts 86°
2026-04-23 16:33 58.46847 93.28890 40919 ft 485 kts 86°
2026-04-23 16:34 58.46793 93.41792 40922 ft 485 kts 86°
2026-04-23 16:34 58.46727 93.54555 40935 ft 485 kts 86°
2026-04-23 16:35 58.46647 93.67413 40931 ft 486 kts 87°
2026-04-23 16:35 58.46555 93.80236 40935 ft 485 kts 87°
2026-04-23 16:36 58.46450 93.93078 40932 ft 485 kts 87°
2026-04-23 16:36 58.46331 94.05895 40941 ft 485 kts 86°
2026-04-23 16:37 58.46200 94.18707 40963 ft 484 kts 86°
2026-04-23 16:37 58.46056 94.31562 40958 ft 485 kts 86°
2026-04-23 16:38 58.45901 94.44299 40955 ft 485 kts 86°
2026-04-23 16:38 58.45730 94.57173 40962 ft 485 kts 86°
2026-04-23 16:39 58.45547 94.70021 40962 ft 485 kts 88°
2026-04-23 16:39 58.45353 94.82797 40966 ft 485 kts 88°
2026-04-23 16:40 58.45145 94.95605 40973 ft 485 kts 88°
2026-04-23 16:40 58.44925 95.08375 40989 ft 484 kts 87°
2026-04-23 16:41 58.44683 95.21237 40988 ft 485 kts 88°
2026-04-23 16:41 58.44371 95.34023 40993 ft 485 kts 88°
2026-04-23 16:42 58.44048 95.46744 41002 ft 484 kts 88°
2026-04-23 16:42 58.43711 95.59547 41016 ft 484 kts 88°
2026-04-23 16:43 58.43359 95.72391 41017 ft 484 kts 89°
2026-04-23 16:43 58.42997 95.85157 41014 ft 484 kts 89°
2026-04-23 16:44 58.42624 95.97865 41011 ft 484 kts 89°
2026-04-23 16:44 58.42236 96.10654 41023 ft 484 kts 89°
2026-04-23 16:45 58.41837 96.23402 41047 ft 483 kts 89°
2026-04-23 16:45 58.41425 96.36134 41048 ft 483 kts 89°
2026-04-23 16:46 58.41002 96.48832 41056 ft 483 kts 88°
2026-04-23 16:46 58.40567 96.61601 41046 ft 484 kts 88°
2026-04-23 16:47 58.40119 96.74353 41080 ft 483 kts 89°
2026-04-23 16:47 58.39659 96.87103 41077 ft 483 kts 89°
2026-04-23 16:48 58.39190 96.99771 41086 ft 483 kts 89°
2026-04-23 16:48 58.38706 97.12489 41082 ft 483 kts 89°
2026-04-23 16:49 58.38208 97.25221 41070 ft 483 kts 89°
2026-04-23 16:49 58.37718 97.37894 41075 ft 483 kts 88°
2026-04-23 16:50 58.37410 97.50668 41065 ft 483 kts 87°
2026-04-23 16:50 58.37099 97.63389 41073 ft 483 kts 87°
2026-04-23 16:51 58.36775 97.76110 41073 ft 483 kts 88°
2026-04-23 16:51 58.36437 97.88861 41058 ft 483 kts 88°
2026-04-23 16:52 58.36086 98.01614 41060 ft 483 kts 88°
2026-04-23 16:52 58.35725 98.14264 41069 ft 483 kts 88°
2026-04-23 16:53 58.35348 98.26992 41080 ft 483 kts 88°
2026-04-23 16:53 58.34960 98.39713 41089 ft 483 kts 88°
2026-04-23 16:54 58.34559 98.52428 41069 ft 483 kts 88°
2026-04-23 16:54 58.34144 98.65170 41079 ft 483 kts 88°
2026-04-23 16:55 58.33715 98.77935 41099 ft 483 kts 88°
2026-04-23 16:55 58.33276 98.90665 41093 ft 483 kts 88°
2026-04-23 16:56 58.32822 99.03410 41098 ft 483 kts 88°
2026-04-23 16:56 58.32356 99.16140 41096 ft 483 kts 88°
2026-04-23 16:57 58.31882 99.28761 41096 ft 483 kts 88°
2026-04-23 16:57 58.31392 99.41472 41106 ft 483 kts 88°
2026-04-23 16:58 58.30888 99.54203 41129 ft 482 kts 88°
2026-04-23 16:58 58.30376 99.66821 41136 ft 482 kts 89°
2026-04-23 16:59 58.29849 99.79494 41144 ft 482 kts 89°
2026-04-23 16:59 58.29305 99.92270 41137 ft 482 kts 89°
2026-04-23 17:00 58.28753 100.04936 41134 ft 482 kts 89°
2026-04-23 17:00 58.28189 100.17587 41139 ft 482 kts 89°
2026-04-23 17:01 58.27612 100.30233 41140 ft 482 kts 89°
2026-04-23 17:01 58.27024 100.42865 41150 ft 482 kts 89°
2026-04-23 17:02 58.26420 100.55544 41156 ft 482 kts 89°
2026-04-23 17:02 58.25807 100.68150 41156 ft 482 kts 90°
2026-04-23 17:03 58.25179 100.80804 41152 ft 481 kts 90°
2026-04-23 17:03 58.24538 100.93475 41142 ft 481 kts 90°
2026-04-23 17:04 58.23886 101.06093 41136 ft 481 kts 90°
2026-04-23 17:04 58.23224 101.18686 41143 ft 481 kts 90°
2026-04-23 17:05 58.22548 101.31297 41150 ft 480 kts 90°
2026-04-23 17:05 58.21899 101.43844 41146 ft 480 kts 90°
2026-04-23 17:06 58.21239 101.56413 41158 ft 480 kts 90°
2026-04-23 17:06 58.20566 101.68973 41154 ft 480 kts 91°
2026-04-23 17:07 58.19885 101.81459 41159 ft 480 kts 90°
2026-04-23 17:07 58.19191 101.93951 41172 ft 479 kts 90°
2026-04-23 17:08 58.18485 102.06433 41169 ft 479 kts 90°
2026-04-23 17:08 58.17764 102.18964 41183 ft 478 kts 90°
2026-04-23 17:09 58.17034 102.31428 41169 ft 478 kts 90°
2026-04-23 17:09 58.16290 102.43915 41170 ft 477 kts 90°
2026-04-23 17:10 58.15539 102.56318 41181 ft 477 kts 91°
2026-04-23 17:10 58.14820 102.68703 41187 ft 476 kts 90°
2026-04-23 17:11 58.14216 102.81197 41181 ft 475 kts 90°
2026-04-23 17:11 58.13601 102.93605 41180 ft 475 kts 90°
2026-04-23 17:12 58.12974 103.05999 41187 ft 475 kts 90°
2026-04-23 17:12 58.12335 103.18378 41169 ft 475 kts 90°
2026-04-23 17:13 58.11680 103.30823 41159 ft 475 kts 90°
2026-04-23 17:13 58.11016 103.43187 41172 ft 475 kts 90°
2026-04-23 17:14 58.10336 103.55617 41172 ft 475 kts 90°
2026-04-23 17:14 58.09648 103.67962 41179 ft 474 kts 91°
2026-04-23 17:15 58.08963 103.80059 41171 ft 474 kts 91°
2026-04-23 17:15 58.08248 103.92432 41171 ft 474 kts 91°
2026-04-23 17:16 58.07523 104.04793 41167 ft 474 kts 91°
2026-04-23 17:16 58.06789 104.17093 41173 ft 473 kts 91°
2026-04-23 17:17 58.06044 104.29362 41179 ft 473 kts 91°
2026-04-23 17:17 58.05288 104.41619 41184 ft 472 kts 91°
2026-04-23 17:18 58.04131 104.60014 41179 ft 472 kts 91°
2026-04-23 17:19 58.03346 104.72259 41176 ft 472 kts 92°
2026-04-23 17:19 58.02546 104.84537 41165 ft 472 kts 92°
2026-04-23 17:20 58.01742 104.96703 41165 ft 472 kts 92°
2026-04-23 17:21 58.00090 105.21146 41163 ft 471 kts 92°
2026-04-23 17:21 57.98819 105.39471 41177 ft 470 kts 93°
2026-04-23 17:22 57.97526 105.57740 41172 ft 470 kts 93°
2026-04-23 17:23 57.96211 105.75921 41183 ft 469 kts 94°
2026-04-23 17:24 57.94873 105.94055 41178 ft 468 kts 94°
2026-04-23 17:24 57.93509 106.12196 41183 ft 468 kts 94°
2026-04-23 17:25 57.92117 106.30342 41197 ft 468 kts 94°
2026-04-23 17:26 57.90229 106.54406 41171 ft 468 kts 94°
2026-04-23 17:27 57.88779 106.72486 41181 ft 466 kts 95°
2026-04-23 17:27 57.87799 106.84527 41187 ft 465 kts 95°
2026-04-23 17:28 57.86816 106.96461 41185 ft 464 kts 95°
2026-04-23 17:28 57.85821 107.08395 41187 ft 464 kts 95°
2026-04-23 17:29 57.84812 107.20363 41183 ft 464 kts 95°
2026-04-23 17:30 57.83458 107.36202 41180 ft 463 kts 95°
2026-04-23 17:30 57.81736 107.55994 41178 ft 462 kts 95°
2026-04-23 17:31 57.80695 107.67785 41180 ft 462 kts 96°
2026-04-23 17:31 57.79639 107.79629 41179 ft 461 kts 96°
2026-04-23 17:32 57.78574 107.91419 41195 ft 461 kts 96°
2026-04-23 17:32 57.77501 108.03181 41215 ft 460 kts 96°
2026-04-23 17:33 57.75994 108.14842 41214 ft 462 kts 103°
2026-04-23 17:33 57.74239 108.26369 41217 ft 462 kts 103°
2026-04-23 17:34 57.72472 108.37926 41199 ft 462 kts 103°
2026-04-23 17:35 57.69805 108.55227 41183 ft 462 kts 103°
2026-04-23 17:35 57.67125 108.72466 41202 ft 462 kts 104°
2026-04-23 17:36 57.65324 108.83947 41194 ft 462 kts 103°
2026-04-23 17:36 57.63521 108.95377 41199 ft 461 kts 104°
2026-04-23 17:37 57.61716 109.06746 41200 ft 461 kts 104°
2026-04-23 17:38 57.58962 109.23947 41194 ft 461 kts 104°
2026-04-23 17:38 57.57148 109.35334 41190 ft 460 kts 103°
2026-04-23 17:39 57.55324 109.46754 41181 ft 460 kts 103°
2026-04-23 17:39 57.53492 109.58152 41147 ft 461 kts 104°
2026-04-23 17:40 57.51648 109.69545 41090 ft 462 kts 104°
2026-04-23 17:40 57.49792 109.80936 41041 ft 462 kts 104°
2026-04-23 17:41 57.47934 109.92267 41046 ft 461 kts 104°
2026-04-23 17:41 57.45115 110.09317 41080 ft 460 kts 105°
2026-04-23 17:42 57.42291 110.26240 41134 ft 458 kts 105°
2026-04-23 17:43 57.40402 110.37468 41110 ft 459 kts 105°
2026-04-23 17:43 57.38491 110.48753 41102 ft 459 kts 105°
2026-04-23 17:44 57.36573 110.60007 41100 ft 459 kts 105°
2026-04-23 17:44 57.33695 110.76770 41094 ft 459 kts 105°
2026-04-23 17:45 57.30780 110.93589 41067 ft 459 kts 105°
2026-04-23 17:46 57.27845 111.10371 41045 ft 459 kts 106°
2026-04-23 17:46 57.25877 111.21534 41032 ft 459 kts 106°
2026-04-23 17:47 57.23905 111.32658 41045 ft 458 kts 106°
2026-04-23 17:48 57.20928 111.49318 41046 ft 458 kts 106°
2026-04-23 17:48 57.18926 111.60407 41051 ft 458 kts 106°
2026-04-23 17:49 57.16880 111.71481 41046 ft 458 kts 107°
2026-04-23 17:49 57.14835 111.82487 41049 ft 457 kts 107°
2026-04-23 17:50 57.12763 111.93574 41062 ft 457 kts 107°
2026-04-23 17:50 57.09649 112.10117 41052 ft 457 kts 107°
2026-04-23 17:51 57.07570 112.21085 41032 ft 457 kts 108°
2026-04-23 17:52 57.04426 112.37550 40982 ft 458 kts 108°
2026-04-23 17:52 57.01257 112.54010 40944 ft 458 kts 108°
2026-04-23 17:53 56.98051 112.70513 40938 ft 457 kts 109°
2026-04-23 17:54 56.95914 112.81438 40946 ft 457 kts 109°
2026-04-23 17:54 56.92685 112.97834 40975 ft 455 kts 109°
2026-04-23 17:55 56.89451 113.14123 40910 ft 457 kts 109°
2026-04-23 17:56 56.87262 113.25066 40875 ft 457 kts 109°
2026-04-23 17:56 56.83992 113.41309 40836 ft 457 kts 109°
2026-04-23 17:57 56.81789 113.52170 40816 ft 457 kts 109°
2026-04-23 17:58 56.78481 113.68376 40902 ft 454 kts 110°
2026-04-23 17:58 56.76277 113.79102 40947 ft 453 kts 110°
2026-04-23 17:59 56.74067 113.89798 40937 ft 453 kts 110°
2026-04-23 17:59 56.71835 114.00545 40920 ft 454 kts 110°
2026-04-23 18:00 56.69604 114.11230 40899 ft 454 kts 110°
2026-04-23 18:00 56.67358 114.21928 40898 ft 454 kts 110°
2026-04-23 18:01 56.65106 114.32600 40903 ft 454 kts 110°
2026-04-23 18:01 56.62839 114.43282 40906 ft 453 kts 110°
2026-04-23 18:02 56.60963 114.52085 40908 ft 453 kts 110°
2026-04-23 18:02 56.58309 114.64470 40910 ft 453 kts 110°
2026-04-23 18:03 56.56025 114.75069 40925 ft 452 kts 111°
2026-04-23 18:03 56.53729 114.85671 40909 ft 453 kts 111°
2026-04-23 18:04 56.51433 114.96216 40897 ft 453 kts 111°
2026-04-23 18:04 56.49119 115.06789 40898 ft 452 kts 111°
2026-04-23 18:05 56.46817 115.17255 40969 ft 451 kts 111°
2026-04-23 18:05 56.44500 115.27736 40986 ft 451 kts 112°
2026-04-23 18:06 56.42166 115.38243 40972 ft 451 kts 112°
2026-04-23 18:06 56.39830 115.48703 40964 ft 451 kts 112°
2026-04-23 18:07 56.37500 115.59088 40960 ft 451 kts 112°
2026-04-23 18:07 56.35142 115.69545 40955 ft 451 kts 113°
2026-04-23 18:08 56.33170 115.78247 40965 ft 451 kts 112°
2026-04-23 18:08 56.30412 115.90362 40952 ft 451 kts 113°
2026-04-23 18:09 56.28027 116.00784 40945 ft 451 kts 113°
2026-04-23 18:09 56.25637 116.11175 40919 ft 452 kts 113°
2026-04-23 18:10 56.23228 116.21594 40855 ft 453 kts 113°
2026-04-23 18:10 56.20818 116.31971 40866 ft 452 kts 113°
2026-04-23 18:11 56.18409 116.42293 40892 ft 451 kts 113°
2026-04-23 18:11 56.15986 116.52625 40918 ft 450 kts 113°
2026-04-23 18:12 56.13548 116.62967 40874 ft 451 kts 113°
2026-04-23 18:12 56.11106 116.73278 40837 ft 451 kts 114°
2026-04-23 18:13 56.08650 116.83601 40805 ft 452 kts 114°
2026-04-23 18:13 56.06182 116.93921 40773 ft 452 kts 114°
2026-04-23 18:14 56.04122 117.02500 40719 ft 453 kts 114°
2026-04-23 18:14 56.01231 117.14483 40744 ft 451 kts 114°
2026-04-23 18:15 55.98750 117.24714 40772 ft 450 kts 114°
2026-04-23 18:15 55.96263 117.34917 40786 ft 450 kts 114°
2026-04-23 18:16 55.93756 117.45158 40768 ft 450 kts 114°
2026-04-23 18:16 55.91270 117.55267 40775 ft 450 kts 114°
2026-04-23 18:17 55.87498 117.70515 40797 ft 450 kts 115°
2026-04-23 18:17 55.84977 117.80644 40803 ft 450 kts 115°
2026-04-23 18:18 55.82431 117.90785 40812 ft 450 kts 115°
2026-04-23 18:18 55.79863 118.00945 40814 ft 450 kts 115°
2026-04-23 18:19 55.77298 118.11046 40790 ft 451 kts 115°
2026-04-23 18:19 55.74748 118.21175 40771 ft 452 kts 115°
2026-04-23 18:20 55.72198 118.31280 40750 ft 452 kts 115°
2026-04-23 18:20 55.69616 118.41465 40771 ft 452 kts 115°
2026-04-23 18:21 55.67027 118.51628 40781 ft 451 kts 115°
2026-04-23 18:21 55.64456 118.61681 40775 ft 452 kts 115°
2026-04-23 18:22 55.61843 118.71846 40752 ft 452 kts 116°
2026-04-23 18:22 55.59249 118.81890 40759 ft 452 kts 116°
2026-04-23 18:23 55.55376 118.97010 40766 ft 453 kts 114°
2026-04-23 18:24 55.51810 119.12421 40763 ft 453 kts 114°
2026-04-23 18:25 55.48239 119.27738 40757 ft 453 kts 114°
2026-04-23 18:25 55.45841 119.37959 40792 ft 452 kts 114°
2026-04-23 18:26 55.43427 119.48165 40791 ft 452 kts 115°
2026-04-23 18:26 55.40741 119.58089 40791 ft 452 kts 117°
2026-04-23 18:27 55.38014 119.67979 40792 ft 452 kts 118°
2026-04-23 18:27 55.35280 119.77856 40793 ft 452 kts 118°
2026-04-23 18:28 55.32545 119.87696 40795 ft 452 kts 118°
2026-04-23 18:28 55.29798 119.97540 40849 ft 451 kts 118°
2026-04-23 18:29 55.27031 120.07417 40819 ft 452 kts 118°
2026-04-23 18:29 55.24255 120.17281 40814 ft 452 kts 118°
2026-04-23 18:30 55.21483 120.27090 40806 ft 452 kts 118°
2026-04-23 18:30 55.18692 120.36928 40823 ft 452 kts 118°
2026-04-23 18:31 55.15898 120.46734 40816 ft 452 kts 118°
2026-04-23 18:31 55.13099 120.56517 40810 ft 452 kts 118°
2026-04-23 18:32 55.10287 120.66304 40822 ft 452 kts 119°
2026-04-23 18:32 55.07470 120.76066 40812 ft 452 kts 119°
2026-04-23 18:33 55.04641 120.85831 40798 ft 452 kts 119°
2026-04-23 18:33 55.01807 120.95571 40806 ft 452 kts 120°
2026-04-23 18:34 54.98974 121.05268 40802 ft 452 kts 120°
2026-04-23 18:34 54.96109 121.15035 40787 ft 453 kts 120°
2026-04-23 18:35 54.93258 121.24712 40769 ft 453 kts 119°
2026-04-23 18:35 54.90391 121.34404 40776 ft 453 kts 119°
2026-04-23 18:36 54.87505 121.44122 40778 ft 453 kts 119°
2026-04-23 18:36 54.84624 121.53785 40776 ft 454 kts 119°
2026-04-23 18:37 54.81728 121.63454 40785 ft 454 kts 119°
2026-04-23 18:37 54.78809 121.73161 40778 ft 454 kts 120°
2026-04-23 18:38 54.75892 121.82825 40779 ft 454 kts 120°
2026-04-23 18:38 54.72980 121.92427 40793 ft 455 kts 120°
2026-04-23 18:39 54.70035 122.02103 40784 ft 456 kts 120°
2026-04-23 18:39 54.67086 122.11752 40763 ft 457 kts 120°
2026-04-23 18:40 54.64157 122.21471 40762 ft 457 kts 120°
2026-04-23 18:40 54.61249 122.31163 40748 ft 457 kts 120°
2026-04-23 18:41 54.58327 122.40863 40740 ft 457 kts 120°
2026-04-23 18:41 54.55401 122.50533 40730 ft 457 kts 120°
2026-04-23 18:42 54.52437 122.60179 40569 ft 461 kts 120°
2026-04-23 18:42 54.50930 122.65051 40314 ft 464 kts 121°
2026-04-23 18:42 54.49430 122.69898 40084 ft 463 kts 121°
2026-04-23 18:42 54.47918 122.74772 39846 ft 460 kts 121°
2026-04-23 18:43 54.46428 122.79566 39611 ft 458 kts 121°
2026-04-23 18:43 54.44931 122.84373 39379 ft 456 kts 121°
2026-04-23 18:43 54.43440 122.89150 39123 ft 455 kts 121°
2026-04-23 18:43 54.41950 122.93915 38881 ft 455 kts 121°
2026-04-23 18:44 54.40462 122.98663 38636 ft 455 kts 121°
2026-04-23 18:44 54.38962 123.03440 38412 ft 455 kts 121°
2026-04-23 18:44 54.37477 123.08160 38202 ft 455 kts 121°
2026-04-23 18:44 54.35982 123.12902 37957 ft 455 kts 122°
2026-04-23 18:45 54.34488 123.17634 37731 ft 454 kts 122°
2026-04-23 18:45 54.32986 123.22378 37483 ft 452 kts 122°
2026-04-23 18:45 54.31495 123.27082 37236 ft 449 kts 122°
2026-04-23 18:45 54.30022 123.31722 36994 ft 448 kts 122°
2026-04-23 18:46 54.28533 123.36401 36746 ft 445 kts 122°
2026-04-23 18:46 54.27073 123.40979 36498 ft 443 kts 122°
2026-04-23 18:46 54.25611 123.45557 36263 ft 441 kts 122°
2026-04-23 18:46 54.24141 123.50148 36010 ft 439 kts 122°
2026-04-23 18:47 54.22690 123.54675 35777 ft 437 kts 123°
2026-04-23 18:47 54.21237 123.59197 35521 ft 435 kts 123°
2026-04-23 18:47 54.19778 123.63728 35274 ft 434 kts 123°
2026-04-23 18:47 54.18337 123.68196 35029 ft 433 kts 124°
2026-04-23 18:48 54.16890 123.72673 34783 ft 432 kts 124°
2026-04-23 18:48 54.15446 123.77133 34526 ft 431 kts 124°
2026-04-23 18:48 54.13994 123.81609 34291 ft 432 kts 124°
2026-04-23 18:48 54.12558 123.86028 34043 ft 432 kts 124°
2026-04-23 18:49 54.11097 123.90514 33801 ft 432 kts 124°
2026-04-23 18:49 54.09644 123.94968 33554 ft 432 kts 124°
2026-04-23 18:49 54.08192 123.99415 33314 ft 432 kts 124°
2026-04-23 18:49 54.06737 124.03857 33077 ft 432 kts 124°
2026-04-23 18:50 54.06244 124.05365 32994 ft 432 kts 125°
2026-04-23 18:50 54.03818 124.12753 32574 ft 430 kts 125°
2026-04-23 18:50 54.02377 124.17134 32341 ft 429 kts 125°
2026-04-23 18:50 54.00913 124.21575 32084 ft 428 kts 125°
2026-04-23 18:51 53.99465 124.25960 31821 ft 427 kts 125°
2026-04-23 18:51 53.98026 124.30308 31567 ft 426 kts 126°
2026-04-23 18:51 53.96574 124.34689 31289 ft 425 kts 125°
2026-04-23 18:51 53.95118 124.39075 31032 ft 424 kts 125°
2026-04-23 18:52 53.93684 124.43385 30796 ft 422 kts 125°
2026-04-23 18:52 53.92244 124.47706 30555 ft 422 kts 125°
2026-04-23 18:52 53.90794 124.52048 30307 ft 425 kts 125°
2026-04-23 18:52 53.89346 124.56371 30053 ft 429 kts 125°
2026-04-23 18:53 53.87868 124.60781 29816 ft 431 kts 125°
2026-04-23 18:53 53.86388 124.65192 29577 ft 430 kts 125°
2026-04-23 18:53 53.84926 124.69544 29332 ft 427 kts 125°
2026-04-23 18:53 53.83453 124.73916 29103 ft 425 kts 126°
2026-04-23 18:54 53.81990 124.78246 28869 ft 424 kts 126°
2026-04-23 18:54 53.79098 124.86789 28866 ft 421 kts 126°
2026-04-23 18:55 53.76172 124.95395 28874 ft 425 kts 126°
2026-04-23 18:55 53.73229 125.04025 28880 ft 426 kts 125°
2026-04-23 18:56 53.70775 125.11198 28889 ft 427 kts 125°
2026-04-23 18:56 53.67314 125.21280 28905 ft 427 kts 125°
2026-04-23 18:57 53.64335 125.29925 28924 ft 427 kts 124°
2026-04-23 18:57 53.61362 125.38522 28914 ft 428 kts 125°
2026-04-23 18:58 53.58352 125.47199 28923 ft 429 kts 125°
2026-04-23 18:58 53.55359 125.55795 28943 ft 429 kts 124°
2026-04-23 18:59 53.52344 125.64423 28943 ft 429 kts 124°
2026-04-23 18:59 53.49311 125.73073 28888 ft 431 kts 125°
2026-04-23 18:59 53.47789 125.77352 28645 ft 431 kts 127°
2026-04-23 19:00 53.46056 125.80872 28442 ft 418 kts 141°
2026-04-23 19:00 53.43825 125.83933 28189 ft 414 kts 146°
2026-04-23 19:00 53.41578 125.86900 27948 ft 412 kts 145°
2026-04-23 19:00 53.39348 125.89854 27698 ft 411 kts 146°
2026-04-23 19:01 53.37116 125.92808 27450 ft 410 kts 146°
2026-04-23 19:01 53.34896 125.95743 27200 ft 408 kts 146°
2026-04-23 19:01 53.32689 125.98656 26954 ft 407 kts 146°
2026-04-23 19:01 53.30474 126.01578 26711 ft 405 kts 146°
2026-04-23 19:02 53.28989 126.03535 26546 ft 404 kts 145°
2026-04-23 19:02 53.26080 126.07364 26224 ft 403 kts 145°
2026-04-23 19:02 53.23892 126.10239 25972 ft 402 kts 145°
2026-04-23 19:02 53.21693 126.13126 25719 ft 400 kts 145°
2026-04-23 19:03 53.19524 126.15971 25473 ft 398 kts 145°
2026-04-23 19:03 53.17341 126.18831 25221 ft 397 kts 145°
2026-04-23 19:03 53.15195 126.21637 24978 ft 396 kts 145°
2026-04-23 19:03 53.13020 126.24478 24726 ft 394 kts 145°
2026-04-23 19:04 53.10874 126.27279 24474 ft 393 kts 145°
2026-04-23 19:04 53.08751 126.30046 24228 ft 391 kts 145°
2026-04-23 19:04 53.06614 126.32828 23984 ft 390 kts 145°
2026-04-23 19:04 53.04471 126.35613 23728 ft 389 kts 145°
2026-04-23 19:05 53.02371 126.38339 23491 ft 389 kts 145°
2026-04-23 19:05 53.00231 126.41114 23251 ft 388 kts 145°
2026-04-23 19:05 52.98107 126.43865 22993 ft 387 kts 145°
2026-04-23 19:05 52.95994 126.46599 22742 ft 385 kts 145°
2026-04-23 19:06 52.93894 126.49311 22496 ft 384 kts 145°
2026-04-23 19:06 52.91793 126.52023 22249 ft 383 kts 145°
2026-04-23 19:06 52.89716 126.54699 22004 ft 382 kts 144°
2026-04-23 19:06 52.87642 126.57369 21762 ft 381 kts 144°
2026-04-23 19:07 52.85537 126.60074 21512 ft 380 kts 144°
2026-04-23 19:07 52.83457 126.62746 21261 ft 378 kts 144°
2026-04-23 19:07 52.81408 126.65372 21019 ft 377 kts 145°
2026-04-23 19:07 52.79338 126.68025 20771 ft 376 kts 145°
2026-04-23 19:08 52.77285 126.70652 20524 ft 376 kts 145°
2026-04-23 19:08 52.75227 126.73281 20275 ft 375 kts 145°
2026-04-23 19:08 52.73171 126.75905 20038 ft 374 kts 145°
2026-04-23 19:08 52.71101 126.78543 19793 ft 374 kts 145°
2026-04-23 19:09 52.69065 126.81135 19539 ft 373 kts 144°
2026-04-23 19:09 52.67038 126.83713 19299 ft 371 kts 144°
2026-04-23 19:09 52.65008 126.86292 19057 ft 369 kts 144°
2026-04-23 19:09 52.62969 126.88879 18986 ft 368 kts 144°
2026-04-23 19:10 52.60961 126.91421 18992 ft 369 kts 144°
2026-04-23 19:10 52.58910 126.94017 19002 ft 370 kts 144°
2026-04-23 19:10 52.56894 126.96565 19011 ft 370 kts 144°
2026-04-23 19:10 52.54854 126.99141 19008 ft 371 kts 144°
2026-04-23 19:11 52.52800 127.01730 18991 ft 371 kts 144°
2026-04-23 19:11 52.50765 127.04294 19013 ft 372 kts 144°
2026-04-23 19:11 52.48701 127.06889 19009 ft 373 kts 144°
2026-04-23 19:11 52.46674 127.09436 19007 ft 373 kts 144°
2026-04-23 19:12 52.45286 127.11142 19007 ft 372 kts 147°
2026-04-23 19:12 52.42151 127.13332 19011 ft 368 kts 171°
2026-04-23 19:12 52.39611 127.13677 18994 ft 367 kts 179°
2026-04-23 19:12 52.37051 127.13821 18794 ft 368 kts 179°
2026-04-23 19:13 52.34513 127.13975 18546 ft 366 kts 179°
2026-04-23 19:13 52.31984 127.14129 18299 ft 364 kts 179°
2026-04-23 19:13 52.29483 127.14281 18048 ft 362 kts 179°
2026-04-23 19:13 52.26964 127.14436 17798 ft 360 kts 179°
2026-04-23 19:14 52.24493 127.14586 17550 ft 358 kts 179°
2026-04-23 19:14 52.21994 127.14738 17299 ft 357 kts 179°
2026-04-23 19:14 52.19526 127.14889 17051 ft 356 kts 179°
2026-04-23 19:14 52.17077 127.15039 16803 ft 354 kts 179°
2026-04-23 19:15 52.14608 127.15190 16551 ft 353 kts 179°
2026-04-23 19:15 52.12178 127.15338 16313 ft 351 kts 179°
2026-04-23 19:15 52.09729 127.15488 16069 ft 351 kts 178°
2026-04-23 19:15 52.07325 127.15634 15825 ft 350 kts 178°
2026-04-23 19:16 52.04895 127.15782 15575 ft 348 kts 178°
2026-04-23 19:16 52.02503 127.15928 15326 ft 347 kts 178°
2026-04-23 19:16 52.00097 127.16074 15084 ft 346 kts 179°
2026-04-23 19:17 51.95308 127.16366 14580 ft 343 kts 179°
2026-04-23 19:17 51.92948 127.16509 14337 ft 342 kts 179°
2026-04-23 19:17 51.90558 127.16654 14089 ft 340 kts 179°
2026-04-23 19:17 51.88217 127.16796 14007 ft 339 kts 179°
2026-04-23 19:24 51.88145 127.16801 14007 ft 339 kts 179°
2026-04-23 19:24 51.83415 127.17087 14004 ft 340 kts 179°
2026-04-23 19:25 51.78713 127.17371 14007 ft 340 kts 179°
2026-04-23 19:25 51.73956 127.17657 13376 ft 341 kts 179°
2026-04-23 19:26 51.69351 127.18436 12388 ft 334 kts 165°
2026-04-23 19:26 51.67140 127.19508 11882 ft 332 kts 164°
2026-04-23 19:27 51.62765 127.21614 10885 ft 329 kts 164°
2026-04-23 19:27 51.56268 127.24725 9991 ft 323 kts 165°
2026-04-23 19:28 51.51958 127.26782 10009 ft 318 kts 165°
2026-04-23 19:28 51.47992 127.28675 10020 ft 279 kts 165°
2026-04-23 19:29 51.46141 127.29555 9954 ft 282 kts 165°
2026-04-23 19:29 51.42414 127.31323 9362 ft 277 kts 165°
2026-04-23 19:30 51.38732 127.33065 8810 ft 274 kts 165°
2026-04-23 19:30 51.36913 127.33925 8542 ft 273 kts 165°
2026-04-23 19:30 51.33320 127.35622 8029 ft 268 kts 164°
2026-04-23 19:31 51.31525 127.36468 8042 ft 271 kts 164°
2026-04-23 19:31 51.29709 127.37323 8015 ft 269 kts 164°
2026-04-23 19:31 51.27932 127.38159 8019 ft 269 kts 164°
2026-04-23 19:31 51.26131 127.39006 8018 ft 270 kts 164°
2026-04-23 19:32 51.24323 127.39855 8009 ft 270 kts 164°
2026-04-23 19:32 51.22542 127.40691 8007 ft 269 kts 164°
2026-04-23 19:32 51.20757 127.41528 8018 ft 269 kts 165°
2026-04-23 19:32 51.18945 127.42378 8016 ft 269 kts 164°
2026-04-23 19:33 51.17157 127.43214 8014 ft 269 kts 165°
2026-04-23 19:33 51.15350 127.44060 8017 ft 269 kts 164°
2026-04-23 19:33 51.12010 127.45624 8025 ft 235 kts 165°
2026-04-23 19:34 51.10489 127.46335 8025 ft 219 kts 165°
2026-04-23 19:34 51.09054 127.47005 8025 ft 215 kts 165°
2026-04-23 19:34 51.06170 127.48347 8010 ft 216 kts 165°
2026-04-23 19:35 51.04715 127.49023 8019 ft 217 kts 165°
2026-04-23 19:35 51.03289 127.49686 8012 ft 215 kts 165°
2026-04-23 19:35 51.01845 127.50356 8015 ft 216 kts 165°
2026-04-23 19:35 51.00397 127.51028 8021 ft 216 kts 165°
2026-04-23 19:36 50.98967 127.51692 8018 ft 216 kts 165°
2026-04-23 19:36 50.97535 127.52356 8020 ft 216 kts 165°
2026-04-23 19:36 50.96081 127.53030 8025 ft 216 kts 165°
2026-04-23 19:36 50.94635 127.53700 8022 ft 216 kts 165°
2026-04-23 19:37 50.93211 127.54359 8027 ft 216 kts 165°
2026-04-23 19:37 50.91765 127.55028 8018 ft 216 kts 165°
2026-04-23 19:37 50.90313 127.55574 7990 ft 212 kts 178°
2026-04-23 19:37 50.88878 127.55339 7790 ft 205 kts 190°
2026-04-23 19:38 50.87485 127.54964 7542 ft 198 kts 189°
2026-04-23 19:38 50.86161 127.54618 7361 ft 192 kts 189°
2026-04-23 19:38 50.84835 127.54273 7147 ft 193 kts 189°
2026-04-23 19:38 50.83513 127.53929 6941 ft 193 kts 189°
2026-04-23 19:39 50.82191 127.53586 6745 ft 192 kts 189°
2026-04-23 19:39 50.80880 127.53246 6546 ft 192 kts 188°
2026-04-23 19:39 50.79580 127.52910 6350 ft 191 kts 188°
2026-04-23 19:39 50.78262 127.52570 6133 ft 189 kts 188°
2026-04-23 19:40 50.76976 127.52238 5945 ft 187 kts 188°
2026-04-23 19:40 50.75698 127.51909 5744 ft 186 kts 188°
2026-04-23 19:40 50.74429 127.51582 5543 ft 184 kts 188°
2026-04-23 19:40 50.73181 127.51262 5358 ft 182 kts 187°
2026-04-23 19:41 50.71929 127.50942 5203 ft 182 kts 187°
2026-04-23 19:41 50.70663 127.50617 4968 ft 184 kts 187°
2026-04-23 19:41 50.69832 127.50404 4837 ft 181 kts 187°
2026-04-23 19:41 50.68200 127.49991 4592 ft 177 kts 187°
2026-04-23 19:42 50.67039 127.49375 4396 ft 180 kts 213°
2026-04-23 19:42 50.66138 127.47988 4214 ft 182 kts 222°
2026-04-23 19:42 50.65287 127.46531 4007 ft 183 kts 221°
2026-04-23 19:42 50.64422 127.45063 3814 ft 180 kts 221°
2026-04-23 19:43 50.63572 127.43624 3627 ft 180 kts 221°
2026-04-23 19:43 50.62595 127.42511 3424 ft 172 kts 196°
2026-04-23 19:43 50.61474 127.41934 3296 ft 165 kts 194°
2026-04-23 19:43 50.60370 127.41370 3093 ft 170 kts 194°
2026-04-23 19:44 50.59249 127.40794 2837 ft 168 kts 194°
2026-04-23 19:44 50.58141 127.40222 2690 ft 168 kts 194°
2026-04-23 19:44 50.57037 127.39652 2500 ft 168 kts 195°
2026-04-23 19:44 50.55935 127.39083 2333 ft 164 kts 194°
2026-04-23 19:45 50.54863 127.38530 2128 ft 164 kts 195°
2026-04-23 19:45 50.53784 127.38060 1979 ft 147 kts 184°
2026-04-23 19:45 50.52871 127.38250 2000 ft 125 kts 168°
2026-04-23 19:45 50.52050 127.38528 1969 ft 116 kts 169°
2026-04-23 19:46 50.51274 127.38777 1956 ft 113 kts 169°
2026-04-23 19:46 50.50494 127.39030 1813 ft 114 kts 169°
2026-04-23 19:46 50.49735 127.39276 1685 ft 112 kts 169°
2026-04-23 19:46 50.48966 127.39527 1525 ft 112 kts 168°
2026-04-23 19:47 50.48461 127.39692 1442 ft 113 kts 168°
2026-04-23 19:47 50.47438 127.40022 1228 ft 112 kts 168°
2026-04-23 19:47 50.46655 127.40264 1093 ft 117 kts 166°
2026-04-23 19:47 50.45866 127.40527 1051 ft 114 kts 166°
2026-04-23 19:48 50.45090 127.40781 849 ft 115 kts 168°
2026-04-23 19:48 50.44304 127.41026 649 ft 116 kts 167°
2026-04-23 19:48 50.43554 127.41277 562 ft 97 kts 168°
2026-04-23 19:48 50.43089 127.41425 580 ft 41 kts 168°
2026-04-23 19:49 50.42947 127.41464 587 ft 9 kts 175°
2026-04-23 19:49 50.42889 127.41425 590 ft 10 kts 218°
2026-04-23 19:49 50.42833 127.41352 591 ft 0 kts 219°